| time (UTC) | temp F | wind direction | speed MPH | gust MPH | rain 1hr in | rain 24hr in | rain mn in | humidity % | barometer mb |
| 20260506164955 | 61 | 88 | 2.0 | 8.0 | 0.00 | 0.00 | 0.00 | 75 | 1020.7 |
| 20260506164440 | 61 | 69 | 4.0 | 8.0 | 0.00 | 0.00 | 0.00 | 74 | 1020.7 |
| 20260506163955 | 61 | 320 | 4.0 | 10.0 | 0.00 | 0.00 | 0.00 | 74 | 1020.7 |
| 20260506163420 | 62 | 351 | 5.0 | 10.0 | 0.00 | 0.00 | 0.00 | 73 | 1020.6 |
| 20260506162940 | 62 | 219 | 1.0 | 6.0 | 0.00 | 0.00 | 0.00 | 74 | 1020.7 |
| 20260506162445 | 62 | 306 | 4.0 | 6.0 | 0.00 | 0.00 | 0.00 | 74 | 1020.7 |
| 20260506161930 | 61 | 167 | 2.0 | 8.0 | 0.00 | 0.00 | 0.00 | 75 | 1020.6 |
| 20260506161435 | 61 | 196 | 2.0 | 8.0 | 0.00 | 0.00 | 0.00 | 75 | 1020.8 |
| 20260506160921 | 60 | 275 | 3.0 | 5.0 | 0.00 | 0.00 | 0.00 | 75 | 1020.7 |
| 20260506160426 | 60 | 309 | 3.0 | 5.0 | 0.00 | 0.00 | 0.00 | 76 | 1020.7 |
| 20260506155926 | 60 | 279 | 3.0 | 7.0 | 0.00 | 0.00 | 0.00 | 76 | 1020.7 |
| 20260506155432 | 60 | 325 | 3.0 | 7.0 | 0.00 | 0.00 | 0.00 | 76 | 1020.7 |
| 20260506154938 | 59 | 289 | 3.0 | 5.0 | 0.00 | 0.00 | 0.00 | 76 | 1020.7 |
| 20260506154423 | 59 | 301 | 2.0 | 6.0 | 0.00 | 0.00 | 0.00 | 76 | 1020.8 |
| 20260506153951 | 60 | 314 | 3.0 | 6.0 | 0.00 | 0.00 | 0.00 | 77 | 1020.7 |
| 20260506153436 | 60 | 286 | 3.0 | 5.0 | 0.00 | 0.00 | 0.00 | 77 | 1020.7 |
| 20260506152941 | 59 | 261 | 3.0 | 5.0 | 0.00 | 0.00 | 0.00 | 77 | 1020.6 |
| 20260506152422 | 59 | 295 | 2.0 | 6.0 | 0.00 | 0.00 | 0.00 | 77 | 1020.7 |
| 20260506151930 | 59 | 323 | 3.0 | 7.0 | 0.00 | 0.00 | 0.00 | 77 | 1020.7 |
| 20260506151437 | 59 | 328 | 4.0 | 7.0 | 0.00 | 0.00 | 0.00 | 78 | 1020.6 |
| 20260506150925 | 59 | 313 | 2.0 | 4.0 | 0.00 | 0.00 | 0.00 | 79 | 1020.6 |
| 20260506150458 | 58 | 177 | 2.0 | 5.0 | 0.00 | 0.00 | 0.00 | 79 | 1020.6 |
| 20260506145942 | 58 | 222 | 1.0 | 7.0 | 0.00 | 0.00 | 0.00 | 79 | 1020.6 |
| 20260506145424 | 58 | 271 | 4.0 | 8.0 | 0.00 | 0.00 | 0.00 | 79 | 1020.6 |
| 20260506144930 | 58 | 302 | 4.0 | 8.0 | 0.00 | 0.00 | 0.00 | 80 | 1020.5 |
| 20260506144435 | 57 | 313 | 2.0 | 7.0 | 0.00 | 0.00 | 0.00 | 80 | 1020.4 |
| 20260506143919 | 57 | 276 | 4.0 | 7.0 | 0.00 | 0.00 | 0.00 | 80 | 1020.5 |
| 20260506143425 | 57 | 261 | 4.0 | 7.0 | 0.00 | 0.00 | 0.00 | 80 | 1020.4 |
| 20260506142932 | 57 | 313 | 3.0 | 8.0 | 0.00 | 0.00 | 0.00 | 80 | 1020.3 |
| 20260506142419 | 57 | 295 | 4.0 | 8.0 | 0.00 | 0.00 | 0.00 | 80 | 1020.3 |
| 20260506141934 | 57 | 34 | 2.0 | 5.0 | 0.00 | 0.00 | 0.00 | 80 | 1020.3 |
| 20260506141420 | 57 | 309 | 3.0 | 4.0 | 0.00 | 0.00 | 0.00 | 80 | 1020.2 |
| 20260506140945 | 57 | 282 | 2.0 | 4.0 | 0.00 | 0.00 | 0.00 | 80 | 1020.2 |
| 20260506140429 | 57 | 235 | 3.0 | 6.0 | 0.00 | 0.00 | 0.00 | 80 | 1020.2 |
| 20260506135935 | 56 | 259 | 3.0 | 6.0 | 0.00 | 0.00 | 0.00 | 80 | 1020.1 |
| 20260506135422 | 56 | 289 | 3.0 | 5.0 | 0.00 | 0.00 | 0.00 | 81 | 1020.0 |
| 20260506134946 | 56 | 222 | 2.0 | 4.0 | 0.00 | 0.00 | 0.00 | 81 | 1020.0 |
| 20260506134433 | 56 | 185 | 1.0 | 4.0 | 0.00 | 0.00 | 0.00 | 81 | 1020.0 |
| 20260506133919 | 56 | 313 | 2.0 | 6.0 | 0.00 | 0.00 | 0.00 | 81 | 1019.9 |
| 20260506133426 | 56 | 295 | 3.0 | 6.0 | 0.00 | 0.00 | 0.00 | 81 | 1020.0 |
| 20260506132934 | 56 | 285 | 4.0 | 7.0 | 0.00 | 0.00 | 0.00 | 81 | 1019.9 |
| 20260506132420 | 56 | 247 | 3.0 | 7.0 | 0.00 | 0.00 | 0.00 | 81 | 1019.9 |
| 20260506131927 | 56 | 289 | 3.0 | 6.0 | 0.00 | 0.00 | 0.00 | 81 | 1019.9 |
| 20260506131435 | 56 | 290 | 3.0 | 6.0 | 0.00 | 0.00 | 0.00 | 81 | 1019.8 |
| 20260506130920 | 56 | 299 | 3.0 | 7.0 | 0.00 | 0.00 | 0.00 | 81 | 1019.7 |
| 20260506130422 | 56 | 258 | 2.0 | 7.0 | 0.00 | 0.00 | 0.00 | 82 | 1019.7 |
| 20260506125948 | 56 | 249 | 2.0 | 7.0 | 0.00 | 0.00 | 0.00 | 82 | 1019.8 |
| 20260506125434 | 56 | 268 | 4.0 | 7.0 | 0.00 | 0.00 | 0.00 | 82 | 1019.7 |
| 20260506124924 | 56 | 251 | 3.0 | 6.0 | 0.00 | 0.00 | 0.00 | 82 | 1019.7 |
| 20260506124430 | 56 | 292 | 2.0 | 5.0 | 0.00 | 0.00 | 0.00 | 81 | 1019.6 |
| 20260506123918 | 56 | 282 | 3.0 | 6.0 | 0.00 | 0.00 | 0.00 | 81 | 1019.5 |
| 20260506123421 | 56 | 256 | 2.0 | 8.0 | 0.00 | 0.00 | 0.00 | 81 | 1019.5 |
| 20260506122948 | 56 | 276 | 3.0 | 5.0 | 0.00 | 0.00 | 0.00 | 81 | 1019.5 |
| 20260506122436 | 56 | 301 | 2.0 | 4.0 | 0.00 | 0.00 | 0.00 | 81 | 1019.5 |
| 20260506121923 | 56 | 334 | 2.0 | 7.0 | 0.00 | 0.00 | 0.00 | 81 | 1019.4 |
| 20260506121459 | 56 | 160 | 2.0 | 7.0 | 0.00 | 0.00 | 0.00 | 81 | 1019.5 |
| 20260506120925 | 56 | 302 | 2.0 | 8.0 | 0.00 | 0.00 | 0.00 | 80 | 1019.5 |
| 20260506120433 | 56 | 288 | 5.0 | 8.0 | 0.00 | 0.00 | 0.00 | 80 | 1019.5 |
| 20260506115936 | 56 | 297 | 3.0 | 5.0 | 0.00 | 0.00 | 0.00 | 80 | 1019.4 |
| 20260506115422 | 56 | 330 | 2.0 | 4.0 | 0.00 | 0.00 | 0.00 | 80 | 1019.4 |
| 20260506114957 | 56 | 320 | 2.0 | 7.0 | 0.00 | 0.00 | 0.00 | 80 | 1019.4 |
| 20260506114445 | 56 | 261 | 2.0 | 7.0 | 0.00 | 0.00 | 0.00 | 80 | 1019.5 |
| 20260506113926 | 56 | 302 | 3.0 | 7.0 | 0.00 | 0.00 | 0.00 | 80 | 1019.4 |
| 20260506113435 | 56 | 190 | 3.0 | 7.0 | 0.00 | 0.00 | 0.00 | 80 | 1019.3 |
| 20260506112922 | 56 | 230 | 3.0 | 7.0 | 0.00 | 0.00 | 0.00 | 80 | 1019.3 |
| 20260506112425 | 56 | 313 | 4.0 | 7.0 | 0.00 | 0.00 | 0.00 | 81 | 1019.2 |
| 20260506111932 | 56 | 251 | 4.0 | 7.0 | 0.00 | 0.00 | 0.00 | 81 | 1019.3 |
| 20260506111419 | 56 | 293 | 5.0 | 8.0 | 0.00 | 0.00 | 0.00 | 81 | 1019.2 |
| 20260506110925 | 56 | 280 | 5.0 | 9.0 | 0.00 | 0.00 | 0.00 | 81 | 1019.2 |
| 20260506110429 | 56 | 275 | 5.0 | 9.0 | 0.00 | 0.00 | 0.00 | 82 | 1019.1 |
| 20260506105936 | 56 | 277 | 6.0 | 9.0 | 0.00 | 0.00 | 0.00 | 83 | 1019.1 |
| 20260506105424 | 56 | 303 | 5.0 | 9.0 | 0.00 | 0.00 | 0.00 | 83 | 1019.1 |
| 20260506104932 | 56 | 273 | 5.0 | 9.0 | 0.00 | 0.00 | 0.00 | 83 | 1019.1 |
| 20260506104436 | 56 | 294 | 5.0 | 9.0 | 0.00 | 0.00 | 0.00 | 83 | 1019.1 |
| 20260506103951 | 56 | 277 | 4.0 | 10.0 | 0.00 | 0.00 | 0.00 | 83 | 1019.0 |
| 20260506103441 | 56 | 261 | 5.0 | 10.0 | 0.00 | 0.00 | 0.00 | 83 | 1019.0 |
| 20260506102945 | 56 | 295 | 3.0 | 11.0 | 0.00 | 0.00 | 0.00 | 83 | 1019.0 |
| 20260506102433 | 56 | 276 | 6.0 | 11.0 | 0.00 | 0.00 | 0.00 | 83 | 1019.0 |
| 20260506101921 | 56 | 308 | 5.0 | 9.0 | 0.00 | 0.00 | 0.00 | 83 | 1019.0 |
| 20260506101445 | 56 | 270 | 6.0 | 9.0 | 0.00 | 0.00 | 0.00 | 83 | 1018.8 |
| 20260506100932 | 56 | 288 | 2.0 | 9.0 | 0.00 | 0.00 | 0.00 | 83 | 1018.9 |
| 20260506100419 | 56 | 287 | 4.0 | 8.0 | 0.00 | 0.00 | 0.00 | 83 | 1018.9 |
| 20260506095924 | 56 | 314 | 4.0 | 9.0 | 0.00 | 0.01 | 0.00 | 82 | 1018.9 |
| 20260506095435 | 56 | 299 | 5.0 | 9.0 | 0.00 | 0.01 | 0.00 | 82 | 1018.9 |
| 20260506094922 | 56 | 297 | 4.0 | 8.0 | 0.00 | 0.01 | 0.00 | 82 | 1019.0 |
| 20260506094430 | 56 | 280 | 5.0 | 8.0 | 0.00 | 0.01 | 0.00 | 82 | 1019.0 |
| 20260506093928 | 56 | 287 | 6.0 | 8.0 | 0.00 | 0.01 | 0.00 | 82 | 1019.0 |
| 20260506093437 | 56 | 280 | 2.0 | 7.0 | 0.00 | 0.01 | 0.00 | 81 | 1019.0 |
| 20260506092941 | 56 | 280 | 4.0 | 7.0 | 0.00 | 0.01 | 0.00 | 81 | 1019.0 |
| 20260506092428 | 56 | 317 | 2.0 | 10.0 | 0.00 | 0.01 | 0.00 | 81 | 1018.9 |
| 20260506091935 | 56 | 282 | 3.0 | 10.0 | 0.00 | 0.01 | 0.00 | 81 | 1018.9 |
| 20260506091422 | 56 | 315 | 3.0 | 9.0 | 0.00 | 0.01 | 0.00 | 81 | 1018.8 |
| 20260506090929 | 56 | 273 | 4.0 | 8.0 | 0.00 | 0.01 | 0.00 | 81 | 1018.7 |
| 20260506090501 | 56 | 203 | 4.0 | 8.0 | 0.00 | 0.01 | 0.00 | 81 | 1018.7 |
| 20260506085956 | 56 | 256 | 4.0 | 7.0 | 0.00 | 0.03 | 0.00 | 81 | 1018.8 |
| 20260506085451 | 56 | 285 | 6.0 | 7.0 | 0.00 | 0.03 | 0.00 | 81 | 1018.9 |
| 20260506084939 | 56 | 282 | 2.0 | 8.0 | 0.00 | 0.03 | 0.00 | 81 | 1018.8 |
| 20260506084455 | 56 | 301 | 3.0 | 8.0 | 0.00 | 0.03 | 0.00 | 81 | 1018.9 |
| 20260506083923 | 56 | 300 | 4.0 | 8.0 | 0.00 | 0.03 | 0.00 | 81 | 1018.9 |
| 20260506083443 | 56 | 318 | 4.0 | 6.0 | 0.00 | 0.03 | 0.00 | 81 | 1018.9 |
| 20260506082928 | 56 | 299 | 2.0 | 10.0 | 0.00 | 0.03 | 0.00 | 81 | 1019.0 |
| 20260506082434 | 56 | 313 | 4.0 | 10.0 | 0.00 | 0.03 | 0.00 | 80 | 1019.0 |
| 20260506081920 | 57 | 273 | 4.0 | 9.0 | 0.00 | 0.03 | 0.00 | 80 | 1019.1 |
| 20260506081427 | 56 | 286 | 3.0 | 8.0 | 0.00 | 0.03 | 0.00 | 80 | 1019.0 |
| 20260506080934 | 56 | 294 | 5.0 | 10.0 | 0.00 | 0.03 | 0.00 | 80 | 1019.0 |
| 20260506080440 | 56 | 277 | 5.0 | 10.0 | 0.00 | 0.03 | 0.00 | 80 | 1019.1 |
| 20260506073419 | 56 | 290 | 7.0 | 11.0 | 0.00 | 0.06 | 0.00 | 81 | 1018.8 |
| 20260506072944 | 56 | 261 | 4.0 | 11.0 | 0.00 | 0.06 | 0.00 | 81 | 1018.9 |
| 20260506072427 | 56 | 278 | 7.0 | 12.0 | 0.00 | 0.06 | 0.00 | 81 | 1018.7 |
| 20260506071933 | 56 | 280 | 6.0 | 12.0 | 0.00 | 0.06 | 0.00 | 82 | 1018.8 |
| 20260506071418 | 56 | 260 | 5.0 | 11.0 | 0.00 | 0.06 | 0.00 | 82 | 1018.6 |
| 20260506070946 | 56 | 239 | 6.0 | 12.0 | 0.00 | 0.06 | 0.00 | 82 | 1018.7 |
| 20260506070433 | 56 | 283 | 4.0 | 12.0 | 0.00 | 0.06 | 0.00 | 83 | 1018.7 |
| 20260506062430 | 57 | 306 | 6.0 | 9.0 | 0.00 | 0.07 | 0.06 | 83 | 1018.3 |
| 20260506061933 | 57 | 314 | 4.0 | 11.0 | 0.00 | 0.07 | 0.06 | 82 | 1018.3 |
| 20260506061420 | 57 | 283 | 6.0 | 11.0 | 0.00 | 0.07 | 0.06 | 82 | 1018.2 |
| 20260506060928 | 57 | 302 | 6.0 | 12.0 | 0.00 | 0.07 | 0.06 | 82 | 1018.2 |
| 20260506060436 | 57 | 282 | 4.0 | 12.0 | 0.00 | 0.07 | 0.06 | 82 | 1018.2 |
| 20260506050919 | 57 | 276 | 6.0 | 11.0 | 0.00 | 0.09 | 0.06 | 83 | 1018.0 |
| 20260506050429 | 57 | 261 | 5.0 | 10.0 | 0.00 | 0.09 | 0.06 | 83 | 1018.0 |
| 20260506044940 | 57 | 301 | 6.0 | 10.0 | 0.00 | 0.10 | 0.06 | 83 | 1017.8 |
| 20260506044448 | 57 | 296 | 6.0 | 12.0 | 0.00 | 0.10 | 0.06 | 83 | 1017.8 |
| 20260506043935 | 57 | 294 | 5.0 | 10.0 | 0.00 | 0.10 | 0.06 | 83 | 1017.9 |
| 20260506043422 | 57 | 264 | 6.0 | 10.0 | 0.00 | 0.10 | 0.06 | 83 | 1017.8 |
| 20260506042927 | 57 | 268 | 5.0 | 10.0 | 0.00 | 0.10 | 0.06 | 82 | 1017.7 |
| 20260506042435 | 57 | 299 | 5.0 | 13.0 | 0.00 | 0.10 | 0.06 | 82 | 1017.8 |
| 20260506041933 | 57 | 264 | 3.0 | 9.0 | 0.00 | 0.10 | 0.06 | 82 | 1017.5 |
| 20260506041420 | 57 | 222 | 5.0 | 9.0 | 0.00 | 0.10 | 0.06 | 82 | 1017.5 |
| 20260506040942 | 57 | 268 | 6.0 | 9.0 | 0.00 | 0.10 | 0.06 | 82 | 1017.4 |
| 20260506040428 | 57 | 295 | 4.0 | 8.0 | 0.00 | 0.10 | 0.06 | 81 | 1017.4 |
| 20260506035931 | 57 | 268 | 4.0 | 10.0 | 0.00 | 0.10 | 0.06 | 81 | 1017.2 |
| 20260506035434 | 57 | 230 | 6.0 | 10.0 | 0.00 | 0.10 | 0.06 | 81 | 1017.2 |
| 20260506034941 | 57 | 234 | 6.0 | 12.0 | 0.00 | 0.10 | 0.06 | 80 | 1017.1 |
| 20260506034423 | 57 | 270 | 5.0 | 13.0 | 0.00 | 0.10 | 0.06 | 80 | 1016.9 |
| 20260506033930 | 57 | 274 | 6.0 | 13.0 | 0.00 | 0.10 | 0.06 | 80 | 1016.9 |
| 20260506033437 | 57 | 212 | 6.0 | 12.0 | 0.00 | 0.10 | 0.06 | 80 | 1016.8 |
| 20260506032924 | 57 | 251 | 5.0 | 12.0 | 0.00 | 0.10 | 0.06 | 79 | 1016.8 |
| 20260506032430 | 57 | 251 | 6.0 | 12.0 | 0.00 | 0.10 | 0.06 | 79 | 1016.7 |
| 20260506031933 | 58 | 282 | 5.0 | 11.0 | 0.00 | 0.10 | 0.06 | 79 | 1016.7 |
| 20260506031437 | 58 | 240 | 5.0 | 11.0 | 0.00 | 0.10 | 0.06 | 79 | 1016.6 |
| 20260506030924 | 58 | 271 | 5.0 | 12.0 | 0.00 | 0.10 | 0.06 | 78 | 1016.5 |
| 20260506030429 | 58 | 359 | 6.0 | 12.0 | 0.00 | 0.10 | 0.06 | 79 | 1016.4 |
| 20260506025932 | 58 | 237 | 6.0 | 12.0 | 0.00 | 0.10 | 0.06 | 79 | 1016.3 |
| 20260506025418 | 58 | 222 | 6.0 | 12.0 | 0.00 | 0.10 | 0.06 | 79 | 1016.2 |
| 20260506024925 | 58 | 292 | 6.0 | 11.0 | 0.00 | 0.10 | 0.06 | 78 | 1016.2 |
| 20260506024429 | 58 | 239 | 6.0 | 11.0 | 0.00 | 0.10 | 0.06 | 78 | 1016.2 |
| 20260506023937 | 58 | 252 | 6.0 | 12.0 | 0.00 | 0.10 | 0.06 | 79 | 1016.2 |
| 20260506023422 | 58 | 258 | 8.0 | 16.0 | 0.00 | 0.10 | 0.06 | 78 | 1016.2 |
| 20260506022929 | 58 | 251 | 8.0 | 16.0 | 0.00 | 0.10 | 0.06 | 78 | 1016.2 |
| 20260506022437 | 58 | 274 | 9.0 | 14.0 | 0.00 | 0.10 | 0.06 | 78 | 1016.1 |
| 20260506021925 | 58 | 249 | 8.0 | 14.0 | 0.00 | 0.10 | 0.06 | 77 | 1016.0 |
| 20260506021432 | 58 | 257 | 8.0 | 20.0 | 0.00 | 0.10 | 0.06 | 77 | 1016.0 |
| 20260506020940 | 58 | 235 | 11.0 | 20.0 | 0.00 | 0.10 | 0.06 | 77 | 1015.9 |
| 20260506020421 | 59 | 260 | 8.0 | 18.0 | 0.00 | 0.10 | 0.06 | 77 | 1015.9 |
| 20260506015928 | 58 | 274 | 10.0 | 18.0 | 0.00 | 0.10 | 0.06 | 77 | 1015.9 |
| 20260506015434 | 59 | 251 | 10.0 | 17.0 | 0.00 | 0.10 | 0.06 | 76 | 1015.9 |
| 20260506014921 | 59 | 259 | 11.0 | 17.0 | 0.00 | 0.10 | 0.06 | 76 | 1015.9 |
| 20260506014429 | 59 | 281 | 9.0 | 17.0 | 0.00 | 0.10 | 0.06 | 75 | 1016.0 |
| 20260506013935 | 59 | 270 | 8.0 | 18.0 | 0.00 | 0.10 | 0.06 | 75 | 1016.0 |
| 20260506013419 | 60 | 251 | 9.0 | 16.0 | 0.00 | 0.10 | 0.06 | 74 | 1016.0 |
| 20260506012922 | 60 | 276 | 6.0 | 16.0 | 0.00 | 0.10 | 0.06 | 74 | 1016.1 |
| 20260506012431 | 60 | 275 | 7.0 | 15.0 | 0.00 | 0.10 | 0.06 | 74 | 1016.1 |
| 20260506011937 | 60 | 177 | 8.0 | 15.0 | 0.00 | 0.10 | 0.06 | 73 | 1016.1 |
| 20260506011423 | 60 | 277 | 9.0 | 14.0 | 0.00 | 0.10 | 0.06 | 73 | 1016.0 |
| 20260506010928 | 61 | 287 | 10.0 | 18.0 | 0.00 | 0.10 | 0.06 | 74 | 1016.0 |
| 20260506010436 | 60 | 263 | 9.0 | 18.0 | 0.00 | 0.10 | 0.06 | 73 | 1015.9 |
| 20260506005920 | 61 | 251 | 10.0 | 18.0 | 0.00 | 0.10 | 0.06 | 72 | 1016.0 |
| 20260506005428 | 61 | 27 | 9.0 | 18.0 | 0.00 | 0.10 | 0.06 | 71 | 1015.9 |
| 20260506004931 | 61 | 225 | 8.0 | 15.0 | 0.00 | 0.10 | 0.06 | 71 | 1015.9 |
| 20260506004434 | 61 | 285 | 6.0 | 15.0 | 0.00 | 0.10 | 0.06 | 73 | 1015.7 |
| 20260506003919 | 61 | 293 | 8.0 | 16.0 | 0.00 | 0.10 | 0.06 | 73 | 1015.7 |
| 20260506003426 | 61 | 213 | 10.0 | 20.0 | 0.00 | 0.10 | 0.06 | 72 | 1015.6 |
| 20260506002933 | 61 | 286 | 9.0 | 20.0 | 0.00 | 0.10 | 0.06 | 73 | 1015.6 |
| 20260506002438 | 61 | 277 | 11.0 | 20.0 | 0.00 | 0.10 | 0.06 | 72 | 1015.5 |
| 20260506001924 | 61 | 278 | 10.0 | 18.0 | 0.00 | 0.10 | 0.06 | 72 | 1015.5 |
| 20260506001425 | 61 | 261 | 10.0 | 18.0 | 0.00 | 0.10 | 0.06 | 72 | 1015.4 |
| 20260506000933 | 61 | 256 | 8.0 | 18.0 | 0.00 | 0.10 | 0.06 | 73 | 1015.4 |
| 20260506000420 | 61 | 277 | 9.0 | 18.0 | 0.00 | 0.10 | 0.06 | 74 | 1015.3 |
| 20260505235925 | 60 | 228 | 10.0 | 16.0 | 0.00 | 0.10 | 0.06 | 74 | 1015.3 |
| 20260505235432 | 60 | 270 | 9.0 | 17.0 | 0.00 | 0.10 | 0.06 | 75 | 1015.4 |
| 20260505234922 | 60 | 268 | 11.0 | 19.0 | 0.00 | 0.10 | 0.06 | 75 | 1015.4 |
| 20260505234427 | 60 | 268 | 11.0 | 18.0 | 0.00 | 0.10 | 0.06 | 74 | 1015.3 |
| 20260505233930 | 60 | 268 | 11.0 | 20.0 | 0.00 | 0.10 | 0.06 | 74 | 1015.4 |
| 20260505233437 | 60 | 277 | 10.0 | 20.0 | 0.00 | 0.10 | 0.06 | 74 | 1015.5 |
| 20260505232954 | 60 | 263 | 11.0 | 19.0 | 0.00 | 0.10 | 0.06 | 73 | 1015.5 |
| 20260505232421 | 61 | 257 | 12.0 | 20.0 | 0.00 | 0.10 | 0.06 | 74 | 1015.5 |
| 20260505231928 | 61 | 283 | 10.0 | 21.0 | 0.00 | 0.10 | 0.06 | 73 | 1015.4 |
| 20260505231435 | 61 | 314 | 9.0 | 20.0 | 0.00 | 0.10 | 0.06 | 73 | 1015.4 |
| 20260505230941 | 61 | 256 | 12.0 | 19.0 | 0.00 | 0.10 | 0.06 | 73 | 1015.3 |
| 20260505230443 | 61 | 242 | 11.0 | 21.0 | 0.00 | 0.10 | 0.06 | 73 | 1015.2 |
| 20260505225928 | 62 | 237 | 8.0 | 21.0 | 0.00 | 0.10 | 0.06 | 73 | 1015.3 |
| 20260505225433 | 61 | 268 | 12.0 | 22.0 | 0.00 | 0.10 | 0.06 | 71 | 1015.2 |
| 20260505224918 | 62 | 263 | 10.0 | 22.0 | 0.00 | 0.10 | 0.06 | 72 | 1015.4 |
| 20260505224423 | 62 | 252 | 13.0 | 22.0 | 0.00 | 0.10 | 0.06 | 72 | 1015.4 |
| 20260505223926 | 62 | 269 | 13.0 | 22.0 | 0.00 | 0.10 | 0.06 | 73 | 1015.4 |
| 20260505223433 | 61 | 282 | 13.0 | 21.0 | 0.00 | 0.10 | 0.06 | 73 | 1015.6 |
| 20260505222936 | 61 | 261 | 11.0 | 19.0 | 0.00 | 0.10 | 0.06 | 74 | 1015.4 |
| 20260505222441 | 61 | 287 | 9.0 | 20.0 | 0.00 | 0.10 | 0.06 | 74 | 1015.5 |
| 20260505221926 | 60 | 249 | 9.0 | 20.0 | 0.00 | 0.10 | 0.06 | 75 | 1015.6 |
| 20260505221433 | 60 | 250 | 11.0 | 18.0 | 0.00 | 0.10 | 0.06 | 75 | 1015.7 |
| 20260505220942 | 61 | 251 | 10.0 | 17.0 | 0.00 | 0.10 | 0.06 | 75 | 1015.8 |
| 20260505220447 | 61 | 247 | 12.0 | 17.0 | 0.00 | 0.10 | 0.06 | 74 | 1015.8 |
| 20260505215928 | 61 | 252 | 7.0 | 15.0 | 0.00 | 0.10 | 0.06 | 75 | 1015.9 |
| 20260505215432 | 60 | 259 | 10.0 | 15.0 | 0.00 | 0.10 | 0.06 | 76 | 1015.8 |
| 20260505214935 | 60 | 275 | 8.0 | 17.0 | 0.00 | 0.10 | 0.06 | 75 | 1015.9 |
| 20260505214423 | 61 | 263 | 9.0 | 19.0 | 0.00 | 0.10 | 0.06 | 75 | 1016.0 |
| 20260505213930 | 60 | 287 | 9.0 | 19.0 | 0.00 | 0.10 | 0.06 | 74 | 1016.1 |
| 20260505213436 | 60 | 295 | 8.0 | 16.0 | 0.00 | 0.10 | 0.06 | 74 | 1016.1 |
| 20260505212918 | 60 | 268 | 8.0 | 15.0 | 0.00 | 0.10 | 0.06 | 74 | 1016.1 |
| 20260505212421 | 60 | 252 | 10.0 | 17.0 | 0.00 | 0.10 | 0.06 | 74 | 1016.1 |
| 20260505211928 | 61 | 243 | 10.0 | 16.0 | 0.00 | 0.10 | 0.06 | 74 | 1016.1 |
| 20260505211435 | 61 | 263 | 10.0 | 17.0 | 0.00 | 0.10 | 0.06 | 73 | 1016.1 |
| 20260505210921 | 61 | 256 | 8.0 | 15.0 | 0.00 | 0.10 | 0.06 | 73 | 1016.1 |
| 20260505210428 | 61 | 282 | 10.0 | 14.0 | 0.00 | 0.10 | 0.06 | 73 | 1016.1 |
| 20260505205934 | 61 | 219 | 8.0 | 15.0 | 0.00 | 0.10 | 0.06 | 73 | 1016.1 |
| 20260505205441 | 61 | 272 | 7.0 | 19.0 | 0.00 | 0.10 | 0.06 | 73 | 1016.0 |
| 20260505204922 | 60 | 282 | 10.0 | 18.0 | 0.00 | 0.10 | 0.06 | 73 | 1016.1 |
| 20260505204426 | 60 | 347 | 8.0 | 19.0 | 0.00 | 0.10 | 0.06 | 74 | 1016.1 |
| 20260505203932 | 60 | 259 | 12.0 | 20.0 | 0.00 | 0.10 | 0.06 | 73 | 1016.1 |
| 20260505203446 | 61 | 288 | 9.0 | 15.0 | 0.00 | 0.10 | 0.06 | 72 | 1016.1 |
| 20260505203001 | 61 | 268 | 10.0 | 15.0 | 0.00 | 0.10 | 0.06 | 72 | 1016.1 |
| 20260505202458 | 61 | 284 | 9.0 | 19.0 | 0.00 | 0.10 | 0.06 | 73 | 1016.1 |
| 20260505201923 | 61 | 284 | 11.0 | 21.0 | 0.00 | 0.10 | 0.06 | 72 | 1016.1 |
| 20260505201421 | 61 | 275 | 12.0 | 17.0 | 0.00 | 0.10 | 0.06 | 72 | 1016.1 |
| 20260505200927 | 61 | 249 | 11.0 | 18.0 | 0.00 | 0.10 | 0.06 | 71 | 1016.1 |
| 20260505200431 | 61 | 203 | 8.0 | 20.0 | 0.00 | 0.10 | 0.06 | 73 | 1016.0 |
| 20260505195919 | 61 | 268 | 11.0 | 20.0 | 0.00 | 0.10 | 0.06 | 73 | 1015.9 |
| 20260505195423 | 60 | 277 | 11.0 | 22.0 | 0.00 | 0.10 | 0.06 | 73 | 1016.2 |
| 20260505194928 | 60 | 265 | 14.0 | 22.0 | 0.00 | 0.10 | 0.06 | 73 | 1016.2 |
| 20260505194435 | 61 | 308 | 9.0 | 19.0 | 0.00 | 0.10 | 0.06 | 74 | 1016.1 |
| 20260505193934 | 60 | 239 | 11.0 | 19.0 | 0.00 | 0.10 | 0.06 | 74 | 1016.2 |
| 20260505193422 | 60 | 294 | 12.0 | 18.0 | 0.00 | 0.10 | 0.06 | 74 | 1016.2 |
| 20260505192929 | 60 | 258 | 10.0 | 19.0 | 0.00 | 0.10 | 0.06 | 74 | 1016.2 |
| 20260505192436 | 60 | 259 | 9.0 | 19.0 | 0.00 | 0.10 | 0.06 | 74 | 1016.2 |
| 20260505191926 | 60 | 289 | 9.0 | 16.0 | 0.00 | 0.10 | 0.06 | 74 | 1016.2 |
| 20260505191431 | 59 | 221 | 12.0 | 16.0 | 0.00 | 0.10 | 0.06 | 75 | 1016.2 |
| 20260505190937 | 59 | 261 | 10.0 | 16.0 | 0.00 | 0.10 | 0.06 | 74 | 1016.1 |
| 20260505190440 | 59 | 265 | 9.0 | 14.0 | 0.00 | 0.10 | 0.06 | 76 | 1016.0 |
| 20260505185917 | 59 | 235 | 7.0 | 17.0 | 0.00 | 0.10 | 0.06 | 76 | 1015.9 |
| 20260505185423 | 59 | 295 | 8.0 | 17.0 | 0.00 | 0.10 | 0.06 | 77 | 1015.9 |
| 20260505184931 | 59 | 300 | 9.0 | 18.0 | 0.00 | 0.10 | 0.06 | 77 | 1015.9 |
| 20260505184436 | 59 | 315 | 9.0 | 18.0 | 0.00 | 0.10 | 0.06 | 77 | 1015.9 |
| 20260505183923 | 59 | 282 | 7.0 | 17.0 | 0.00 | 0.10 | 0.06 | 77 | 1015.9 |
| 20260505183430 | 59 | 261 | 8.0 | 17.0 | 0.00 | 0.10 | 0.06 | 78 | 1015.9 |
| 20260505182936 | 59 | 283 | 7.0 | 19.0 | 0.00 | 0.10 | 0.06 | 78 | 1016.0 |
| 20260505182419 | 59 | 281 | 12.0 | 19.0 | 0.00 | 0.10 | 0.06 | 77 | 1016.1 |
| 20260505181953 | 59 | 263 | 8.0 | 16.0 | 0.00 | 0.10 | 0.06 | 77 | 1016.2 |
| 20260505181435 | 59 | 289 | 8.0 | 14.0 | 0.00 | 0.10 | 0.06 | 79 | 1016.1 |
| 20260505180952 | 59 | 265 | 6.0 | 13.0 | 0.00 | 0.10 | 0.06 | 80 | 1016.2 |
| 20260505180419 | 58 | 280 | 6.0 | 15.0 | 0.00 | 0.10 | 0.06 | 80 | 1016.0 |
| 20260505175943 | 58 | 314 | 5.0 | 15.0 | 0.00 | 0.10 | 0.06 | 81 | 1015.8 |
| 20260505175423 | 58 | 270 | 10.0 | 17.0 | 0.00 | 0.10 | 0.06 | 81 | 1015.8 |
| 20260505174930 | 57 | 275 | 10.0 | 17.0 | 0.00 | 0.10 | 0.06 | 81 | 1015.7 |
| 20260505174416 | 57 | 241 | 7.0 | 16.0 | 0.00 | 0.10 | 0.06 | 82 | 1015.7 |
| 20260505173925 | 57 | 290 | 9.0 | 17.0 | 0.00 | 0.10 | 0.06 | 83 | 1015.6 |
| 20260505173431 | 57 | 261 | 9.0 | 17.0 | 0.00 | 0.10 | 0.06 | 82 | 1015.7 |
| 20260505172919 | 57 | 270 | 11.0 | 14.0 | 0.00 | 0.10 | 0.06 | 83 | 1015.6 |
| 20260505172424 | 57 | 285 | 10.0 | 15.0 | 0.00 | 0.10 | 0.06 | 83 | 1015.5 |
| 20260505171932 | 57 | 274 | 9.0 | 14.0 | 0.00 | 0.10 | 0.06 | 83 | 1015.6 |
| 20260505171434 | 57 | 283 | 6.0 | 15.0 | 0.00 | 0.10 | 0.06 | 84 | 1015.6 |
| 20260505170941 | 57 | 323 | 9.0 | 15.0 | 0.00 | 0.10 | 0.06 | 84 | 1015.6 |
| 20260505170426 | 56 | 283 | 9.0 | 15.0 | 0.00 | 0.10 | 0.06 | 84 | 1015.5 |
| 20260505165933 | 56 | 249 | 10.0 | 15.0 | 0.00 | 0.10 | 0.06 | 85 | 1015.6 |
| 20260505165419 | 57 | 295 | 6.0 | 13.0 | 0.00 | 0.10 | 0.06 | 85 | 1015.6 |